Regional Weather Roundup
Issued by NWS Midland/Odessa, TX

Home | Current Version | Previous Version | Text Only | Print | Product List | Glossary On
Versions: 1 2 3 4 5 6 7 8 9 10 11 12 13 14 15 16 17 18 19 20 21 22 23 24 25 26 27 28 29 30 31 32 33 34 35 36 37 38 39 40 41 42 43 44 45 46 47 48 49 50
000
ASUS44 KMAF 240610
RWRMAF
MIDLAND AREA WEATHER ROUNDUP
NATIONAL WEATHER SERVICE MIDLAND TX
100 AM CDT THU JUL 24 2014

...IN SOUTHWEST TEXAS AND SOUTHEAST NEW MEXICO...

CITY           SKY/WX    TMP DP  RH WIND       PRES   REMARKS
ALPINE         CLEAR     71  56  58 SW5       30.32R
ANDREWS        FAIR      80  54  40 SE5       30.19S
ARTESIA        CLEAR     84  54  34 SE9       30.19R
BIG SPRING     PTCLDY    82  56  41 E5        30.17S
CARLSBAD       CLOUDY    87  53  31 S6        30.17R
DRYDEN           N/A     85  59  41 NE6       30.08S
FORT STOCKTON  CLEAR     83  56  39 SE9       30.15F
GUAD PASS      PTCLDY    74  48  39 E12       30.34S
HOBBS          CLEAR     77  50  38 E8        30.23S
MARFA          CLEAR     68  54  60 NE5       30.30F
MIDLAND AIRPK  CLEAR     83  59  45 SE6       30.17S
MIDLAND INTL   CLEAR     82  59  45 SE8       30.15F
ODESSA         CLEAR     83  57  41 SE7       30.17S
PECOS          CLEAR     79  54  41 NE5       30.13R
PRESIDIO       FAIR      86  52  30 NE7       30.12R
SEMINOLE       CLEAR     79  52  38 E6        30.21S
SNYDER         MOCLDY    83  62  49 E6        30.16S
WINK           CLEAR     79  66  64 E5        30.13S
$$
...OTHER STATIONS IN TEXAS...

CITY           SKY/WX    TMP DP  RH WIND       PRES   REMARKS
ABILENE        PTCLDY    81  65  58 SE6       30.12R
AMARILLO       CLEAR     76  59  55 S9        30.22F
AUSTIN         MOCLDY    80  69  69 CALM      30.03S
BROWNSVILLE    PTCLDY    78  75  90 S6        30.00F
CORPUS CHRISTI MOCLDY    81  76  84 S5        30.00S
DALLAS FTW     CLOUDY    78  66  66 SW5       30.01F
DEL RIO        MOCLDY    88  63  43 E7        30.01R
EL PASO        CLEAR     81  50  33 E7        30.18R
HOUSTON INT    CLOUDY    78  73  84 E5        29.99F THUNDER
LUBBOCK        CLEAR     74  61  63 E6        30.21S
SAN ANGELO     MOCLDY    79  65  62 E6        30.10S
SAN ANTONIO    MOCLDY    85  73  67 E7        30.06R
WACO           PTCLDY    76  65  68 CALM      30.01F
WICHITA FALLS  NOT AVBL
$$
...OTHER LOCATIONS IN NEW MEXICO...

CITY           SKY/WX    TMP DP  RH WIND       PRES   REMARKS
ALAMAGORDO     PTCLDY    81  46  30 SE7       30.23R
ALBUQUERQUE    PTCLDY    78  48  34 SE9       30.32R
CANNON AFB     CLEAR     70  60  70 SE5       30.29R
CLOVIS         CLEAR     73  57  56 SE9       30.31R
HOLLOMAN AFB   PTCLDY    77  45  31 SE6       30.21R
ROSWELL        CLEAR     80  54  40 SE7       30.21R
RUIDOSO        CLEAR     64  45  48 MISG      30.48R
SANTA FE       CLEAR     67  52  58 E9        30.41R
TRUTH OR CONSE LGT RAIN  76  47  35 SW3       30.26R
TUCUMCARI      PTCLDY    76  57  51 SW5       30.24R
$$


USA.gov is the U.S. government's official web portal to all federal, state and local government web resources and services.